Wetbulb
55.72 52.22 50.50 53.87 56.46 57.66 58.42 57.88 56.78 59.19 61.14 61.12 61.04 61.50 63.68 66.60 66.66 65.44 65.35 66.78 67.36 68.23 71.06 72.30 73.23 73.56 73.90 74.88 75.88 76.22 77.34 80.07 77.99 76.27 76.01 76.03 75.38 76.06 76.07 77.01 78.13 79.06 78.46 77.84
53.28 50.37 54.02 56.01 56.76 56.56 57.31 57.21 57.33 59.32 60.98 60.86 60.71 60.63 64.05 66.12 66.48 67.07 66.41 66.36 67.23 68.19 69.44 71.28 72.89 73.32 73.93 74.72 76.07 77.84 78.38 80.12 79.03 77.63 77.71 77.73 77.19 75.07 76.16 77.58 79.59 78.42 77.69 78.33
51.16 52.43 54.74 54.74 55.21 55.32 56.14 56.35 57.36 57.11 60.90 62.32 60.85 59.31 61.38 64.44 67.08 67.56 67.72 67.82 68.07 67.93 68.16 70.00 71.93 72.97 73.97 74.37 75.70 78.29 79.85 80.55 80.33 80.42 78.97 78.11 77.87 76.64 75.63 74.62 75.81 77.49 77.38 77.68
52.53 54.89 53.06 53.04 53.35 55.65 53.75 58.27 58.14 57.78 57.24 55.80 60.70 54.05 60.15 62.33 63.17 65.93 67.38 67.98 67.79 68.40 69.00 69.68 71.36 72.77 73.56 74.42 76.19 79.01 79.90 80.68 80.38 81.24 78.62 79.20 75.96 73.85 73.61 74.64 75.20 75.32 75.95 75.97
52.29 52.38 52.40 51.51 52.96 56.04 54.93 58.94 58.42 58.24 57.20 57.59 57.01 54.95 57.46 61.73 60.75 62.96 66.20 67.84 68.44 68.54 69.17 69.21 70.61 72.25 73.73 74.75 75.40 77.04 80.14 81.09 81.13 80.90 79.99 77.56 77.27 74.75 74.74 74.49 77.76 77.30 78.22 75.96
53.99 56.34 54.65 53.54 54.93 55.77 57.12 57.51 57.99 57.81 56.73 51.72 57.15 54.88 56.63 57.80 61.43 62.93 64.98 67.30 69.09 68.93 69.46 70.56 71.18 72.15 72.99 74.27 75.08 76.05 79.51 80.87 81.54 81.09 80.61 80.47 80.31 77.29 75.28 75.86 74.22 73.40 74.21 74.36
53.28 53.33 54.66 55.07 52.44 55.30 55.17 54.60 50.76 50.02 50.39 49.86 58.10 55.50 57.82 61.37 62.93 63.74 63.83 65.25 68.30 70.16 69.04 69.59 70.67 71.10 72.57 73.87 75.23 76.13 79.04 80.42 81.38 80.43 80.18 79.71 80.16 79.97 78.78 77.71 74.47 75.71 72.99 73.26
49.95 48.20 53.31 54.37 52.76 52.06 53.14 53.65 50.89 46.78 48.22 50.86 56.58 53.85 57.48 63.43 63.49 64.67 64.98 64.67 66.75 69.56 70.16 69.16 70.06 70.72 71.96 73.51 76.18 76.89 78.32 79.90 80.77 80.34 80.81 81.01 80.98 77.34 76.88 77.82 75.51 72.97 72.48 73.63
50.86 50.69 55.36 54.74 54.72 53.75 52.77 52.01 56.33 52.98 54.29 51.59 53.79 56.97 59.79 62.37 62.63 63.14 63.37 63.36 63.87 68.27 69.85 69.48 69.98 70.24 71.09 73.56 75.93 77.08 78.20 79.74 80.31 80.17 81.12 80.90 80.50 79.99 77.34 79.10 79.15 75.77 77.18 73.57
54.19 50.49 54.58 54.38 55.23 54.20 52.93 56.02 52.04 53.94 49.18 48.32 51.74 53.55 54.56 59.58 60.26 61.61 62.14 62.44 63.95 65.92 69.02 70.04 69.88 70.61 72.15 72.57 75.20 77.21 78.40 79.71 80.26 80.27 80.59 79.91 80.20 80.61 80.32 80.39 79.73 78.33 78.07 76.24
54.47 53.33 52.72 54.80 52.64 51.28 50.97 51.82 54.04 54.53 53.65 49.47 48.66 52.59 59.40 60.44 61.64 61.33 62.12 63.10 63.69 64.96 67.99 70.07 70.38 71.06 72.46 72.64 73.45 75.48 77.49 78.85 79.59 79.73 80.17 79.88 79.63 79.09 80.05 79.32 79.38 78.80 78.56 77.54
55.00 53.37 50.80 52.30 55.41 55.46 53.56 51.94 53.28 53.18 51.89 53.13 52.36 52.47 60.47 60.82 61.52 61.82 62.50 63.19 64.18 64.97 66.26 68.80 70.57 71.25 71.64 73.56 72.98 74.11 75.67 76.32 78.40 79.09 80.25 79.81 80.11 79.36 78.83 79.10 79.24 79.25 77.74 77.70
55.07 52.04 49.15 50.55 53.14 54.67 52.31 52.66 53.14 53.76 54.93 54.54 50.78 52.45 61.13 61.26 61.42 62.12 61.75 62.87 64.03 64.76 65.34 66.75 69.56 71.31 73.00 74.29 74.96 74.97 75.98 75.32 76.64 78.67 78.78 79.76 79.69 79.19 78.76 79.25 79.48 78.95 77.97 74.81
59.72 53.29 51.12 48.99 51.26 53.14 50.73 51.12 52.20 52.05 51.27 52.15 52.64 54.84 58.48 59.81 60.61 61.58 62.18 63.27 63.95 64.60 67.73 69.08 68.53 70.45 73.57 74.87 76.02 76.81 76.31 75.94 76.41 77.10 77.57 78.74 79.68 79.61 79.11 79.58 79.41 79.06 77.38 75.65
55.84 52.07 53.70 53.44 54.31 54.19 52.40 50.51 50.74 50.34 52.21 50.70 53.10 54.44 57.71 59.85 60.70 62.22 62.61 63.21 63.38 64.10 65.49 69.45 69.79 70.23 75.22 76.14 77.24 77.29 77.95 78.16 77.63 78.46 78.47 79.11 80.21 80.23 80.12 79.20 79.31 78.86 76.77 75.89
56.17 52.09 54.14 52.06 53.46 53.02 51.75 52.97 52.16 51.73 51.20 51.88 52.79 53.39 59.17 60.84 61.99 62.26 62.47 62.41 62.64 63.32 64.11 68.48 71.08 71.61 74.99 76.05 77.39 78.00 77.97 78.41 78.75 79.30 78.91 79.85 80.60 80.01 79.64 79.23 78.64 77.87 76.46 74.70
53.63 52.75 51.80 48.89 53.07 52.89 49.69 52.48 53.37 53.98 54.32 53.18 50.41 54.22 57.53 58.43 60.48 62.15 65.10 63.54 63.27 63.82 66.11 65.17 70.85 72.96 75.89 75.75 77.77 77.60 78.51 79.00 79.10 79.65 79.51 80.22 80.46 79.73 79.23 78.58 77.98 76.94 75.34 73.80
53.38 54.42 52.87 50.20 52.32 45.12 53.58 57.18 55.88 54.48 55.45 56.20 56.14 56.52 57.02 57.85 59.84 62.49 64.31 64.93 64.96 65.14 65.91 66.60 70.15 72.26 74.49 75.33 75.98 78.14 77.31 79.08 79.40 79.09 79.71 80.09 80.51 79.57 78.63 77.02 76.45 75.46 73.85 73.59
56.15 53.81 50.43 48.49 48.89 52.47 54.01 56.79 56.56 55.97 55.82 57.50 56.76 57.78 58.13 58.19 58.22 60.26 62.47 64.38 65.70 67.19 68.09 67.63 70.06 72.12 75.17 76.02 77.80 78.51 77.85 77.59 77.97 77.80 78.90 79.31 79.48 79.15 77.83 76.00 75.29 74.13 73.29 72.74
55.61 57.11 53.37 51.41 47.47 46.25 53.88 59.09 61.19 60.41 52.08 58.51 59.84 60.22 59.01 58.14 53.88 58.49 63.88 62.50 63.67 66.40 67.87 68.62 69.94 72.35 73.73 76.55 76.19 77.28 77.32 77.60 77.61 78.06 78.05 79.46 79.53 78.44 76.16 75.73 75.13 74.46 73.00 71.84
49.03 51.09 49.70 50.90 49.54 52.02 58.99 59.47 60.83 51.77 54.10 63.26 63.56 63.36 63.21 61.16 59.89 62.11 63.61 64.73 65.79 67.88 68.88 72.08 73.26 72.79 76.95 77.25 77.29 77.19 76.66 75.92 76.96 76.85 77.02 77.93 77.73 77.80 76.75 74.34 74.74 72.77 70.61 70.31
48.12 48.64 48.80 51.32 49.39 46.74 61.16 60.18 56.20 60.97 63.86 64.22 64.98 64.58 63.57 64.93 64.23 62.04 67.52 67.97 68.66 69.01 69.78 71.68 72.16 73.46 75.23 77.34 77.61 76.92 76.63 78.20 78.65 78.33 77.59 77.63 77.63 75.81 74.88 74.49 73.81 70.74 70.88 69.29
48.92 53.23 51.36 52.67 53.00 61.74 62.07 61.64 62.58 63.41 63.01 64.46 65.47 65.32 65.69 65.33 65.56 67.22 67.65 68.63 69.78 70.68 71.37 72.39 73.06 74.45 74.26 76.55 77.40 76.43 78.91 79.15 78.16 77.31 76.25 76.07 75.70 74.53 74.25 72.86 69.85 67.99 69.54 68.37
55.54 57.54 55.74 56.85 59.15 58.76 60.54 61.45 62.67 63.29 62.77 65.40 66.28 66.74 66.49 66.86 67.88 68.41 68.84 69.18 69.74 70.77 71.35 72.44 72.56 72.76 73.64 76.95 77.32 77.10 77.27 77.13 76.90 75.35 73.34 72.63 71.29 71.64 71.51 69.84 69.31 68.22 68.40 68.34
50.57 53.88 54.90 57.56 59.14 59.35 59.79 60.60 61.47 61.97 63.15 64.03 65.80 66.79 66.78 67.06 66.36 66.94 67.31 68.17 68.69 69.55 70.23 71.08 71.23 71.54 72.33 73.69 74.14 74.96 75.46 75.59 73.81 72.27 70.64 69.92 69.22 69.78 67.48 62.34 65.65 69.43 63.24 61.45
50.30 50.17 49.61 55.37 59.72 59.52 57.58 59.57 60.73 60.62 61.25 62.66 62.72 63.29 64.01 64.40 65.06 65.67 66.11 68.65 68.59 68.08 68.89 69.41 70.67 71.71 72.40 73.11 73.18 74.08 74.60 74.06 72.49 71.17 70.75 69.93 68.82 68.83 68.89 67.04 62.76 45.62 46.75 44.42
MSLP
998.99 998.56 997.25 997.11 996.75 996.31 995.09 994.54 994.30 994.43 995.46 997.03 997.57 997.77 998.50 999.56 1000.17 1000.59 1001.47 1002.64 1003.47 1004.26 1005.05 1005.98 1006.94 1007.64 1008.49 1009.25 1010.23 1011.09 1011.78 1012.31 1012.85 1013.42 1013.80 1014.02 1013.72 1013.74 1013.94 1013.84 1014.36 1014.87 1015.11 1015.61
998.05 996.91 996.82 996.95 996.59 996.12 994.98 994.08 993.82 994.09 994.88 996.20 996.71 996.91 997.40 998.60 999.49 999.98 1000.38 1001.38 1002.41 1003.26 1004.09 1005.19 1006.18 1006.95 1007.75 1008.66 1009.48 1010.51 1011.29 1011.89 1012.60 1012.92 1013.36 1012.71 1012.72 1012.61 1012.76 1013.13 1013.89 1014.28 1014.80 1014.96
995.85 995.90 996.45 996.06 995.73 995.41 994.86 993.84 993.39 993.67 994.40 995.70 996.10 996.46 996.44 997.20 998.41 999.22 999.73 1000.13 1001.06 1001.94 1002.81 1003.98 1005.26 1006.20 1006.99 1007.81 1008.76 1009.66 1010.58 1011.28 1011.96 1012.31 1012.74 1012.93 1012.91 1012.88 1012.83 1012.98 1013.32 1013.90 1014.42 1014.50
995.64 995.27 995.36 995.43 995.03 994.85 994.20 994.36 993.76 993.63 995.01 995.42 995.80 994.86 995.13 995.94 996.75 997.78 998.65 999.14 999.64 1000.60 1001.72 1002.67 1003.96 1005.17 1005.94 1006.86 1008.02 1008.92 1009.93 1010.75 1011.44 1012.01 1011.93 1012.04 1012.25 1012.28 1012.24 1012.56 1012.49 1013.16 1013.88 1014.11
994.52 994.61 994.40 994.47 994.07 994.41 994.12 994.10 994.10 993.74 993.60 994.19 994.54 994.80 993.49 994.65 994.89 995.82 996.95 997.69 998.49 999.15 1000.33 1001.33 1002.34 1003.76 1004.96 1005.98 1006.96 1008.05 1009.14 1010.05 1010.65 1011.21 1011.72 1011.65 1012.09 1011.77 1011.94 1012.28 1012.86 1013.66 1014.05 1014.24
994.14 994.44 994.23 993.82 994.31 994.34 994.55 994.17 993.90 993.95 993.66 993.49 993.53 994.34 992.82 994.89 993.49 994.06 994.88 996.05 997.15 998.00 998.95 1000.22 1001.33 1002.42 1003.70 1004.89 1005.90 1006.91 1008.11 1009.17 1010.03 1010.54 1011.18 1011.51 1011.37 1011.78 1011.72 1012.16 1012.74 1013.24 1013.50 1014.18
993.93 993.38 993.68 993.75 994.12 994.18 994.48 993.97 993.29 993.01 992.60 992.46 993.23 992.71 994.39 991.75 992.36 993.16 993.53 994.11 995.14 996.67 997.80 998.92 1000.07 1001.07 1002.36 1003.57 1004.77 1005.88 1007.02 1008.15 1009.07 1009.82 1010.33 1011.09 1011.39 1011.68 1011.91 1012.02 1012.47 1012.46 1012.61 1013.15
992.53 992.47 992.58 993.09 993.06 993.06 993.13 992.88 992.09 991.80 991.75 991.87 991.95 990.93 990.85 991.30 991.59 992.07 992.62 992.88 993.47 995.13 996.58 997.69 998.85 1000.04 1001.14 1002.49 1003.78 1004.95 1005.90 1007.10 1008.14 1008.92 1009.57 1010.31 1011.03 1011.35 1011.61 1011.83 1011.74 1012.24 1012.07 1012.52
991.08 991.38 992.08 992.53 993.07 993.21 992.22 991.86 992.21 991.94 991.61 991.24 990.52 990.47 990.90 990.98 991.17 991.97 992.53 992.72 992.96 993.76 995.25 996.50 997.67 998.99 1000.17 1001.43 1002.58 1003.78 1005.01 1006.19 1007.15 1007.93 1008.78 1009.50 1010.20 1010.63 1010.73 1011.08 1011.50 1011.66 1011.96 1012.12
990.82 990.66 991.05 991.52 992.65 992.54 991.76 991.88 991.72 990.96 990.23 989.60 989.58 989.33 989.38 990.04 991.21 991.68 991.92 992.18 992.28 992.98 993.90 995.24 996.47 997.81 999.17 1000.35 1001.71 1003.03 1004.22 1005.22 1006.28 1007.09 1007.75 1008.47 1009.16 1009.88 1010.32 1010.45 1010.85 1011.39 1011.67 1012.25
990.95 990.61 990.41 991.00 990.41 990.80 991.53 990.56 990.43 990.96 990.63 989.57 989.06 988.34 988.65 989.30 990.38 991.02 991.41 991.60 991.50 992.06 992.77 994.12 995.30 996.63 998.07 999.33 1000.55 1001.88 1003.14 1004.29 1005.34 1006.12 1006.67 1007.42 1008.16 1008.96 1009.62 1009.85 1010.35 1011.01 1011.58 1012.09
990.30 990.37 990.06 989.52 990.12 990.84 990.92 990.40 990.43 989.68 990.16 989.87 989.06 987.71 987.90 988.65 989.52 990.28 990.32 990.33 990.64 991.15 991.56 992.69 994.05 995.36 996.76 998.10 999.23 1000.34 1001.73 1002.95 1004.01 1004.89 1005.69 1006.39 1007.20 1007.92 1008.51 1009.11 1009.52 1010.38 1011.13 1011.64
989.73 989.84 989.64 990.01 989.58 989.75 989.79 989.60 989.47 989.63 989.73 988.76 988.82 988.08 988.40 988.79 988.91 989.67 990.27 990.47 990.61 990.87 991.46 991.90 992.69 994.09 995.34 996.78 998.22 999.10 1000.31 1001.28 1002.54 1003.70 1004.52 1005.41 1006.17 1006.75 1007.35 1008.01 1008.70 1009.37 1010.22 1010.79
989.53 989.36 989.03 988.15 988.55 988.79 989.18 989.65 989.59 989.13 988.43 988.49 988.08 988.60 988.26 988.31 988.97 989.56 990.10 990.32 990.26 990.67 991.62 992.41 992.52 993.15 994.20 995.48 996.91 998.07 999.03 1000.03 1001.12 1002.25 1003.26 1004.14 1005.02 1005.72 1006.45 1007.08 1007.74 1008.49 1009.35 1009.91
989.92 989.26 988.96 988.96 988.67 988.60 988.29 988.89 989.13 988.75 988.41 988.32 988.03 988.01 988.20 988.23 988.66 989.02 989.78 990.10 990.44 990.72 991.06 992.13 992.66 992.73 993.50 994.82 996.05 997.32 998.11 999.05 999.83 1000.94 1001.95 1002.87 1004.00 1004.95 1005.75 1006.40 1007.07 1007.84 1008.82 1009.42
990.03 989.55 989.51 988.86 988.99 988.78 987.98 987.86 988.28 988.66 988.65 988.17 988.31 987.54 987.89 988.20 988.26 988.58 988.80 989.48 989.74 990.03 990.37 991.05 992.27 992.79 993.13 994.24 995.32 996.58 997.55 998.16 999.24 999.94 1000.77 1001.96 1003.16 1004.24 1005.01 1005.80 1006.57 1007.48 1008.24 1009.10
989.58 989.73 989.99 989.15 989.23 988.88 988.34 987.71 987.40 987.43 987.79 988.33 988.19 988.06 988.63 988.03 987.82 987.93 988.44 988.97 989.40 989.79 990.02 990.04 991.33 992.32 992.68 993.85 995.02 995.92 996.96 997.93 998.66 999.48 1000.23 1001.14 1002.30 1003.32 1004.30 1005.37 1006.19 1006.93 1007.84 1008.63
989.27 989.79 989.90 989.39 989.51 988.47 987.39 987.74 987.65 987.71 987.58 987.35 987.31 987.77 988.07 988.10 988.00 987.91 988.11 988.27 988.83 989.31 989.46 989.50 990.26 991.75 992.58 993.39 994.41 995.67 996.72 997.64 998.33 999.23 999.91 1000.77 1001.84 1002.99 1004.12 1004.90 1005.61 1006.50 1007.36 1007.85
989.58 989.71 989.76 989.37 988.75 988.53 988.26 988.16 987.84 987.81 987.37 987.30 987.21 987.17 987.14 987.57 987.66 987.52 987.41 987.59 987.98 988.53 988.77 988.82 989.21 990.69 991.96 992.72 993.70 995.01 996.23 997.33 998.20 998.96 999.83 1000.58 1001.57 1002.49 1003.53 1004.38 1004.93 1005.57 1006.16 1006.95
990.03 990.19 989.62 989.27 988.44 987.69 988.06 989.16 989.45 989.51 988.35 988.34 988.34 987.97 987.29 986.90 986.65 986.27 987.00 987.47 987.36 987.74 988.23 988.53 988.77 990.14 991.26 992.39 993.28 994.79 995.90 996.67 997.61 998.52 999.51 1000.41 1001.32 1002.20 1003.17 1004.14 1004.84 1005.66 1006.31 1006.90
989.66 989.82 989.27 988.87 988.42 988.16 989.10 989.89 990.23 990.35 990.20 990.12 989.91 989.23 988.47 987.52 986.34 986.65 986.80 986.57 987.20 987.90 988.95 989.20 989.33 989.99 991.27 992.54 993.33 994.84 995.99 996.70 997.50 998.44 999.45 1000.48 1001.50 1002.40 1003.21 1004.05 1004.65 1005.36 1006.12 1006.68
988.93 989.04 988.55 989.02 988.57 988.78 990.00 990.15 990.32 991.12 990.77 990.84 990.16 989.34 988.73 988.17 987.08 987.00 988.25 988.42 988.37 988.80 989.32 989.83 989.97 990.82 992.15 992.57 993.69 995.17 996.29 996.99 997.61 998.48 999.34 1000.38 1001.35 1002.29 1003.21 1004.08 1004.64 1005.51 1006.20 1007.00
988.49 988.06 988.43 988.89 988.76 990.07 990.97 991.28 991.78 991.46 991.46 991.40 990.28 989.43 988.77 988.20 988.04 988.34 989.22 989.41 989.91 990.09 990.50 990.63 991.10 991.99 993.71 993.31 994.31 995.57 996.52 997.15 997.94 998.93 999.85 1000.81 1001.57 1002.40 1003.38 1004.34 1005.10 1005.84 1006.50 1006.96
988.79 989.12 989.09 989.70 991.19 991.40 991.70 992.60 992.88 992.61 992.35 991.68 990.67 989.62 989.48 989.48 990.00 990.33 990.71 991.11 991.46 991.69 992.10 992.66 992.89 993.08 994.69 994.14 995.01 996.44 997.33 998.10 998.68 999.58 1000.59 1001.89 1002.36 1002.92 1003.86 1004.74 1005.43 1006.02 1006.65 1006.88
993.40 992.92 989.78 990.20 991.49 992.79 994.20 993.89 993.57 993.81 993.15 993.08 992.73 992.16 992.36 991.90 992.31 992.44 992.72 993.05 993.52 993.58 993.63 994.11 994.29 994.50 995.67 995.71 996.29 997.30 998.09 998.67 999.30 1000.49 1001.36 1002.18 1002.76 1003.29 1004.20 1005.29 1005.99 1005.90 1006.80 1007.16
996.95 995.43 994.71 988.97 991.15 991.58 994.35 995.21 995.49 995.27 995.02 994.68 993.95 994.11 994.60 994.55 994.46 994.67 995.00 995.00 995.13 995.34 995.46 995.37 995.12 995.42 996.25 997.21 997.59 998.11 998.53 999.15 999.85 1000.50 1001.26 1002.02 1002.86 1003.38 1003.84 1004.97 1006.37 1007.39 1007.64 1007.79
Wind_Speed
21 19 24 26 25 24 23 21 18 15 25 19 17 14 13 15 16 16 19 17 19 20 20 19 19 18 18 16 17 16 13 12 9 9 9 10 11 11 7 6 6 6 7 9
18 24 24 25 26 25 29 23 17 13 21 20 18 19 18 17 14 16 17 20 20 20 20 20 20 19 19 18 17 16 15 13 12 10 10 7 7 8 9 9 4 6 6 9
22 22 25 26 26 27 27 26 18 18 19 17 16 18 19 17 20 16 16 17 21 21 22 22 21 21 20 20 19 17 16 14 13 13 10 7 7 5 5 5 7 9 10 9
25 20 25 27 28 27 25 25 24 19 16 15 19 16 22 19 21 20 19 19 20 23 22 22 23 22 22 21 20 17 16 15 14 13 12 12 9 10 9 8 4 4 4 7
24 21 25 30 29 28 24 25 23 22 19 20 23 18 11 21 20 19 21 21 21 21 23 23 24 24 20 21 20 19 17 16 15 15 14 10 12 8 6 5 6 4 7 5
25 21 27 21 26 24 23 25 24 24 18 16 22 18 20 17 18 19 22 22 21 22 23 23 22 23 22 21 20 19 19 17 17 15 16 13 10 11 7 8 7 7 7 8
23 28 23 22 23 25 28 25 17 19 19 19 25 20 25 17 18 18 19 20 23 22 21 21 23 22 21 22 21 18 19 18 18 17 16 16 14 11 10 6 8 7 8 8
20 23 30 20 27 27 30 28 19 25 17 19 25 23 21 19 10 15 16 14 20 22 21 22 23 22 21 22 20 20 19 19 19 18 17 14 15 12 11 11 8 9 8 8
22 25 22 27 27 29 29 30 26 27 24 21 20 19 22 6 18 18 13 17 14 22 22 25 24 23 22 21 21 21 18 19 19 19 15 15 15 15 13 12 12 9 7 6
21 17 23 27 24 26 33 23 28 23 28 26 24 22 16 19 16 17 19 16 14 15 21 23 23 24 22 23 20 20 19 19 18 18 17 16 16 15 13 12 11 11 8 8
25 19 15 24 31 30 21 28 24 25 24 21 20 18 20 18 18 20 22 22 17 18 19 20 22 23 23 22 22 22 21 20 19 18 18 17 16 17 15 13 13 11 9 10
26 17 17 21 22 26 27 29 32 19 27 20 23 18 14 16 14 12 16 16 20 16 17 20 21 23 23 22 23 23 23 23 21 19 18 18 17 17 17 16 15 14 13 12
23 21 18 19 20 23 30 31 30 30 22 25 23 18 20 7 13 21 18 16 14 9 3 7 18 20 21 22 21 21 22 24 23 20 20 18 18 18 18 18 16 15 15 15
11 22 26 18 22 17 28 28 31 29 24 20 25 25 22 21 15 9 9 16 12 8 8 10 13 18 20 21 22 20 21 23 22 22 20 18 19 18 17 16 17 17 17 17
17 21 23 27 26 23 23 26 27 33 28 29 23 29 27 24 24 19 20 16 16 17 11 12 15 16 17 18 19 20 18 19 19 19 19 18 17 16 15 16 16 15 17 16
20 17 19 20 24 26 24 24 30 27 29 28 29 30 22 26 24 18 17 18 20 15 14 13 14 16 16 19 18 18 19 17 17 17 17 16 16 16 16 14 15 15 15 15
23 17 19 21 20 17 23 25 24 23 28 26 28 27 26 27 25 23 20 20 19 19 19 16 14 17 15 18 16 17 17 16 16 14 16 15 16 17 16 15 15 15 15 15
20 22 16 17 20 26 16 24 27 27 27 25 28 27 26 27 27 26 21 20 22 22 21 20 13 16 18 20 20 16 18 15 15 15 14 15 14 15 14 14 14 14 14 16
19 17 17 17 19 16 18 19 6 5 13 18 22 20 24 26 25 26 26 26 21 21 20 19 15 17 17 19 18 17 16 17 16 16 14 14 15 15 15 16 17 15 15 14
20 14 15 18 24 25 13 7 2 2 12 13 16 20 23 21 19 17 20 26 23 14 12 15 12 15 19 17 20 18 17 18 17 16 15 14 14 14 15 15 13 11 11 14
21 19 20 18 16 19 13 5 4 9 5 9 11 16 19 20 18 17 14 22 14 11 14 10 11 15 14 15 16 16 16 17 16 16 15 14 13 12 12 11 11 13 10 9
23 21 16 20 21 17 9 12 11 6 6 10 13 12 16 19 22 16 4 3 6 10 12 14 14 13 14 14 15 14 13 13 13 13 14 13 12 10 9 12 10 8 7 9
26 20 15 17 18 14 10 10 4 6 5 8 8 7 9 5 5 7 5 4 6 11 12 12 14 15 12 15 14 14 12 12 12 12 11 12 10 8 7 8 8 7 8 8
17 23 19 11 12 14 15 11 8 8 4 4 6 9 5 12 13 13 13 11 9 10 12 13 16 17 13 13 14 14 12 12 12 13 10 7 10 10 10 6 6 6 7 8
6 17 14 22 21 21 16 14 13 11 10 8 17 16 16 16 13 13 12 12 10 9 12 13 14 16 14 14 15 13 12 13 13 13 12 11 9 7 8 7 4 5 5 3
2 9 5 11 19 21 16 14 15 12 13 13 15 17 16 15 14 16 14 11 10 11 10 12 14 15 15 13 13 13 13 13 13 13 11 9 9 9 10 10 8 14 11 6
Wind_Direction
194 206 210 212 218 231 232 210 231 208 162 194 196 228 158 175 201 197 186 190 192 201 196 199 196 193 193 194 189 192 205 185 202 194 198 212 206 209 232 270 245 249 211 232
184 215 214 220 220 225 242 243 221 208 158 193 201 205 182 180 199 208 202 190 203 199 203 196 194 200 196 195 187 189 195 196 198 185 221 237 215 223 208 189 201 215 242 229
212 206 216 213 222 222 231 245 235 218 163 180 230 217 204 189 187 207 217 210 199 209 202 192 197 201 198 197 196 186 191 192 200 229 196 203 261 263 262 227 207 200 210 215
226 214 203 223 222 221 226 234 252 232 128 241 209 245 194 200 202 194 211 215 211 202 207 199 195 201 203 199 195 195 189 197 196 202 235 203 205 224 214 223 198 154 193 209
216 219 217 212 220 223 229 225 234 248 230 220 201 229 209 203 200 196 206 209 215 206 205 207 198 198 205 202 197 195 191 194 207 192 223 206 221 217 235 212 129 227 156 202
237 210 230 218 224 224 231 238 234 234 250 237 231 204 237 168 210 192 200 201 209 211 203 205 209 200 199 203 202 198 187 193 196 203 196 231 206 233 219 201 166 187 189 185
222 229 216 234 220 216 224 227 227 229 219 240 226 205 240 221 191 210 211 205 195 203 206 200 205 206 199 200 199 200 188 190 195 200 201 201 222 203 231 213 202 210 199 186
213 212 226 204 223 219 216 221 225 223 227 228 236 230 212 218 231 194 204 228 192 189 201 205 201 202 198 197 196 198 188 187 193 198 200 196 204 210 210 206 231 207 222 185
211 225 212 213 215 230 211 222 226 236 228 235 228 221 239 242 214 230 253 251 214 184 198 204 201 201 200 194 195 193 194 189 193 196 196 197 196 212 210 214 196 227 217 178
234 238 213 204 218 223 241 215 222 229 238 236 226 237 220 201 222 245 232 246 233 223 195 205 202 197 197 193 193 192 193 191 195 197 195 197 197 198 217 205 203 212 197 223
232 240 228 213 201 215 217 236 222 232 238 246 245 233 224 197 204 221 227 232 221 206 194 203 202 201 195 196 193 192 193 196 195 200 198 199 197 198 200 213 200 201 207 184
215 227 219 228 224 210 233 226 233 229 221 245 259 250 216 211 182 226 222 222 206 211 208 191 204 199 196 198 199 194 197 198 199 201 199 197 195 197 199 206 202 190 199 190
198 223 224 224 226 214 216 234 227 235 228 229 239 237 251 213 210 206 223 253 255 239 269 236 188 199 198 191 199 198 195 199 199 199 198 198 197 198 199 198 200 191 195 185
254 217 225 219 226 222 214 220 240 237 233 235 237 245 239 238 221 234 235 251 238 214 183 245 235 202 198 193 190 199 194 200 198 195 201 197 197 200 200 197 200 192 194 190
238 227 230 226 255 227 221 218 228 240 237 239 243 233 236 240 234 215 210 231 238 237 213 208 235 222 193 193 188 194 201 195 199 195 195 196 192 196 198 201 198 199 192 199
220 227 240 232 233 241 252 226 210 226 247 251 250 254 244 242 248 243 229 232 234 243 251 206 223 231 196 194 194 188 198 196 198 190 195 188 184 190 197 197 206 194 196 206
212 217 214 229 238 238 240 246 251 242 219 227 243 254 256 257 255 247 230 239 248 250 257 252 211 219 201 191 188 195 193 195 189 198 187 187 182 185 189 193 196 200 203 199
221 211 224 231 220 230 238 237 235 247 254 252 233 233 239 248 253 258 257 233 237 248 259 262 200 211 200 196 188 188 187 189 185 188 192 182 182 180 184 191 196 190 202 206
235 217 217 230 232 236 198 256 301 281 268 243 259 264 240 237 245 243 244 247 243 235 243 235 198 205 197 191 175 174 178 182 182 182 189 181 182 186 186 195 194 197 203 205
233 231 234 209 239 231 230 107 30 301 257 268 286 294 272 244 233 241 225 248 234 241 259 262 213 195 183 186 172 172 181 176 179 177 179 178 183 189 193 198 198 195 202 208
212 214 223 225 225 240 111 105 145 217 276 339 309 291 289 283 251 253 252 227 237 223 233 221 201 184 167 182 166 170 178 176 172 169 170 172 183 186 189 183 191 189 201 201
205 200 213 222 229 221 130 162 231 30 339 328 302 287 277 271 272 225 167 211 207 215 208 191 176 160 166 153 144 160 164 157 156 157 160 164 167 183 176 185 186 168 177 196
205 206 206 217 221 102 76 78 80 25 354 312 308 309 278 281 60 101 132 109 149 170 179 158 137 133 149 137 146 152 149 146 142 149 141 153 154 168 144 169 140 153 189 205
197 200 209 126 122 110 78 70 78 74 57 338 39 51 94 95 89 87 84 88 100 122 125 128 134 123 138 125 116 121 132 131 141 122 116 119 127 136 138 144 152 168 193 202
41 320 208 119 127 110 100 82 77 70 56 73 54 57 55 70 75 85 83 94 102 112 122 127 125 116 112 110 115 121 132 132 134 132 136 136 134 126 104 69 35 131 65 346
8 355 299 137 149 101 97 93 82 69 70 49 73 89 86 82 84 71 65 55 91 94 107 106 99 100 103 104 110 120 125 130 130 136 140 134 138 153 147 141 119 55 68 57